#timestamp,LO_Frequency,Hit,StdDev 
1615035615.3,286046998.9,N
1615035635.1,286046999.4,N
1615035655.9,286046998.5,N
1615035675.7,286046997.5,N
1615035695.5,286046995.0,Y
1615035715.4,286046997.3,P
1615035735.2,286046997.0,N
1615035755.1,286046996.9,N
1615035756.0,286046996.9,N
1615035775.8,286047000.8,N
1615035795.6,286046999.1,N
1615035815.5,286046997.9,N
1615035835.3,286046995.0,Y
1615035855.1,286046999.5,P
1615035875.9,286046997.0,P
1615035895.7,286046996.9,P
1615035915.6,286046997.8,N
1615035935.4,286046993.5,Y
1615035955.2,286046995.4,P
1615035975.1,286046997.7,N
1615035976.0,286046997.7,N
1615035995.8,286046997.8,N
1615036015.6,286046996.5,Y
1615036035.5,286047002.8,P
1615036055.3,286047000.4,N
1615036075.2,286047002.2,N
1615036095.9,286047003.2,N
1615036115.7,286047003.9,N
1615036135.6,286047007.5,Y
1615036155.4,286047002.9,P
1615036175.2,286047005.1,P
1615036195.1,286047007.6,P
1615036196.0,286047007.6,Y
1615036215.8,286047002.2,P
1615036235.7,286047002.6,N
1615036255.5,286047001.5,N
1615036275.3,286047001.5,N
1615036295.2,286047004.7,Y
1615036315.0,286047003.4,P
1615036315.9,286047003.4,P
1615036335.7,286047004.3,P
1615036355.6,286047002.0,N
1615036375.4,286047000.9,N
1615036395.3,286047000.9,N
1615036415.1,286047000.5,N
1615036416.0,286047000.5,N
1615036435.8,286047000.8,N
1615036455.7,286046999.7,N
1615036475.5,286047000.2,N
1615036495.3,286047000.1,N
1615036515.2,286047001.0,N
1615036535.0,286046998.8,N
1615036535.9,286046998.8,N
1615036555.8,286046999.1,N
1615036575.6,286046996.5,N
1615036595.4,286046998.9,N
1615036615.3,286046997.7,N
1615036635.1,286046996.5,N
1615036655.8,286046999.1,N
1615036675.7,286046998.7,N
1615036695.5,286047001.1,N
1615036715.4,286046998.3,N
1615036735.2,286046998.6,N
1615036755.0,286046996.9,N
1615036755.9,286046996.9,N
1615036775.8,286046994.9,N
1615036795.6,286046995.4,N
1615036815.4,286046995.7,N
1615036835.3,286046996.7,N
1615036855.1,286046997.7,N
1615036875.9,286046997.2,N
1615036895.7,286046997.1,N
1615036915.5,286046997.7,N
1615036935.4,286046994.9,N
1615036955.2,286046997.9,N
1615036975.0,286046993.8,Y
1615036975.9,286046993.8,P
1615036995.8,286046997.9,N
1615037015.6,286046997.2,N
1615037035.5,286046997.8,N
1615037055.3,286046995.7,N
1615037075.1,286046995.6,N
1615037095.9,286046993.9,Y
1615037115.7,286046998.2,P
1615037135.5,286046999.0,N
1615037155.4,286046998.5,N
1615037175.2,286046998.9,N
1615037195.1,286046998.1,N
1615037196.0,286046998.1,N
1615037215.8,286047000.7,N
1615037235.6,286046998.1,N
1615037255.5,286047000.7,N
1615037275.3,286047001.0,N
1615037295.1,286047001.1,N
1615037315.9,286046998.1,N
1615037335.7,286046998.1,N
1615037355.5,286047000.0,N
1615037375.4,286047002.1,N
1615037395.2,286047002.7,N
1615037415.1,286047002.0,N
1615037416.0,286047002.0,N
1615037435.8,286047000.9,N
1615037455.6,286047000.4,N
1615037475.5,286046998.2,N
1615037495.3,286047001.2,N
1615037515.1,286046998.5,N
1615037535.9,286046999.3,N
1615037555.7,286047001.2,N
1615037575.6,286046997.6,N
1615037595.4,286046996.0,N
1615037615.2,286046994.3,Y
1615037635.1,286046995.8,P
1615037636.0,286046995.8,N
1615037655.8,286046994.9,N
1615037675.6,286046995.5,N
1615037695.5,286046997.9,N
1615037715.3,286046997.2,N
1615037735.2,286046997.8,N
1615037755.9,286046997.0,N
1615037775.7,286046997.2,N
1615037795.6,286046996.7,N
1615037815.4,286046997.2,N
1615037835.2,286046995.5,Y
1615037855.1,286046997.3,P
1615037856.0,286046997.3,P
1615037875.8,286046996.5,P
1615037895.7,286046996.7,Y
1615037915.5,286047002.4,P
1615037935.3,286047002.1,N
1615037955.2,286047001.9,N
1615037975.0,286047004.1,N
1615037975.9,286047004.1,N
1615037995.7,286047002.5,N
1615038015.6,286047000.0,N
1615038035.4,286046999.8,N
1615038055.3,286046998.4,N
1615038075.1,286046998.3,N
1615038076.0,286046998.3,N
1615038095.8,286046998.9,N
1615038115.7,286046998.3,N
1615038135.5,286046998.9,N
1615038155.3,286047001.1,N
1615038175.2,286046998.2,N
1615038195.0,286047000.8,N
1615038195.9,286047000.8,N
1615038215.8,286047000.5,N
1615038235.6,286047000.4,N
1615038255.4,286047000.0,N
1615038275.3,286047001.5,N
1615038295.1,286047001.8,N
1615038315.8,286047002.3,N
1615038335.7,286047001.4,N
1615038355.5,286047002.3,N
1615038375.4,286047002.6,N
1615038395.2,286047001.4,N
1615038415.0,286047000.1,N
1615038415.9,286047000.1,N
1615038435.8,286047000.8,N
1615038455.6,286047000.5,N
1615038475.4,286047000.5,N
1615038495.3,286047000.8,N
1615038515.1,286047000.6,N
1615038535.9,286046999.9,N
1615038555.7,286047002.8,N
1615038575.5,286046999.7,N
1615038595.4,286047000.2,N
1615038615.2,286047000.7,N
1615038635.0,286046999.8,N
1615038635.9,286046999.8,N
1615038655.8,286047000.3,N
1615038675.6,286047001.0,N
1615038695.4,286047000.0,N
1615038715.3,286047001.7,N
1615038735.1,286047002.9,Y
1615038755.9,286047004.4,P
1615038775.7,286047003.9,N
1615038795.5,286046999.8,N
1615038815.4,286046999.7,N
1615038835.2,286046999.2,N
1615038855.1,286046997.5,N
1615038856.0,286046997.5,N
1615038875.8,286046995.3,N
1615038895.6,286046993.3,N
1615038915.5,286046993.5,N
1615038935.3,286046993.3,N
1615038955.1,286046995.1,N
1615038975.9,286046996.7,N
1615038995.7,286046999.2,N
1615039015.6,286046998.7,N
1615039035.4,286047001.2,N
1615039055.2,286046999.3,N
1615039075.1,286047000.6,N
1615039076.0,286047000.6,N
1615039095.8,286047000.7,N
1615039115.6,286047000.4,N
1615039135.5,286047001.2,N
1615039155.3,286046999.5,N
1615039175.2,286046998.7,N
1615039195.9,286046998.5,N
